Location: Arbon
(43.0005°N, 0.7472°E)
Time: 11:17:33
(UTC+00:00)

SeaSat 1 - Pass Details

Date: 22 April 2026
Orbit: 736 x 740 km, 108.0° (Epoch: 15 May)

Event Time Altitude Azimuth Distance (km) Brightness Sun altitude
Exits shadow 23:36:21 28° 319° (NW) 1,386 4.2 -34.4°
Drops below altitude 10° 23:38:39 10° 327° (NNW) 2,255 5.6 -34.4°
Sets 23:40:56 0° 331° (NNW) 3,183 6.6 -34.4°
